Mena, AR

4:50 PM CST on January 22, 2018 (GMT -0600)
Mena

Weather History for KMEZ - December, 2012

Change the Weather History Date:

Sunday, December 30, 2012

  Actual Average (KFSM) Record (KFSM)
Temperature  
Mean Temperature 30 °F -  
Max Temperature 42 °F 48 °F 79 °F (1951)
Min Temperature 17 °F 28 °F 2 °F (1983)
Degree Days  
Heating Degree Days 36    
Moisture  
Dew Point 25 °F    
Average Humidity 80    
Maximum Humidity 100    
Minimum Humidity 46    
Precipitation  
Precipitation 0.00 in - - ()
Sea Level Pressure  
Sea Level Pressure 30.38 in    
Wind  
Wind Speed 0 mph (SW)    
Max Wind Speed 4 mph    
Max Gust Speed -    
Visibility 10 miles    
Events Rain    
Averages and records for this station are not official NWS values.
T = Trace of Precipitation, MM = Missing Value Source: NWS Daily Summary

Daily Weather History Graph

Daily Weather History Graph

Search for Another Location

Airport or City:

Trip Planner

Search our weather history database for the weather conditions in past years. The results will help you decide how hot, cold, wet, or windy it might be!

Date:

Astronomy

Dec. 30, 2012 Rise Set
Actual Time 7:23 AM CST 5:16 PM CST
Civil Twilight 6:55 AM CST 5:43 PM CST
Nautical Twilight 6:23 AM CST 6:15 PM CST
Astronomical Twilight 5:53 AM CST 6:46 PM CST
Moon 7:41 PM CST (12/30) 8:38 AM CST (12/30)
Length of Visible Light 10h 48m
Length of Day
9h 52m
Waning Gibbous, 95% of the Moon is Illuminated
Dec 30
Waning Gibbous
Jan 4
Last Quarter
Jan 11
New
Jan 18
First Quarter
Jan 26
Full

Hourly Weather History & Observations

Time (CST) Temp. Windchill Dew Point Humidity Pressure Visibility Wind Dir Wind Speed Gust Speed Precip Events Conditions
12:15 AM 21.2 °F - 21.2 °F 100% 30.42 in 10.0 mi Calm Calm - N/A   Clear
12:35 AM 23.0 °F 18.4 °F 23.0 °F 100% 30.43 in 10.0 mi SW 3.5 mph - N/A   Clear
12:55 AM 19.4 °F - 19.4 °F 100% 30.42 in 10.0 mi Calm Calm - N/A   Clear
1:15 AM 19.4 °F - 19.4 °F 100% 30.42 in 7.0 mi Calm Calm - N/A   Clear
1:35 AM 21.2 °F - 21.2 °F 100% 30.42 in 10.0 mi Calm Calm - N/A   Clear
2:15 AM 21.2 °F - 21.2 °F 100% 30.43 in 10.0 mi Calm Calm - N/A   Clear
2:35 AM 19.4 °F - 19.4 °F 100% 30.43 in 10.0 mi Calm Calm - N/A   Clear
3:15 AM 19.4 °F - 19.4 °F 100% 30.44 in 10.0 mi Calm Calm - N/A   Clear
3:35 AM 21.2 °F - 19.4 °F 93% 30.44 in 10.0 mi Calm Calm - N/A   Clear
3:55 AM 19.4 °F - 19.4 °F 100% 30.43 in 10.0 mi Calm Calm - N/A   Clear
4:15 AM 19.4 °F - 17.6 °F 93% 30.44 in 10.0 mi Calm Calm - N/A   Clear
4:35 AM 17.6 °F - 17.6 °F 100% 30.43 in 10.0 mi Calm Calm - N/A   Clear
4:55 AM 17.6 °F - 17.6 °F 100% 30.43 in 10.0 mi Calm Calm - N/A   Clear
5:15 AM 19.4 °F - 17.6 °F 93% 30.43 in 10.0 mi Calm Calm - N/A   Clear
5:35 AM 19.4 °F - 17.6 °F 93% 30.43 in 10.0 mi Calm Calm - N/A   Clear
7:35 AM 17.6 °F - 14.0 °F 86% 30.44 in 10.0 mi Calm Calm - N/A   Clear
7:55 AM 19.4 °F - 17.6 °F 93% 30.45 in 10.0 mi Calm Calm - N/A   Clear
8:15 AM 17.6 °F - 15.8 °F 93% 30.45 in 10.0 mi Calm Calm - N/A   Clear
8:35 AM 19.4 °F - 19.4 °F 100% 30.46 in 10.0 mi Calm Calm - N/A   Clear
8:55 AM 23.0 °F - 21.2 °F 93% 30.46 in 10.0 mi Calm Calm - N/A   Clear
9:15 AM 24.8 °F - 23.0 °F 93% 30.46 in 10.0 mi Calm Calm - N/A   Clear
9:55 AM 26.6 °F - 24.8 °F 93% 30.45 in 10.0 mi Calm Calm - N/A   Clear
10:35 AM 30.2 °F - 28.4 °F 93% 30.47 in 10.0 mi Calm Calm - N/A   Clear
10:55 AM 30.2 °F - 28.4 °F 93% 30.46 in 10.0 mi Calm Calm - N/A   Clear
11:15 AM 32.0 °F - 28.4 °F 87% 30.46 in 10.0 mi Calm Calm - N/A   Clear
11:35 AM 32.0 °F - 28.4 °F 87% 30.45 in 10.0 mi Calm Calm - N/A   Clear
11:55 AM 33.8 °F - 26.6 °F 75% 30.43 in 10.0 mi Calm Calm - N/A   Clear
12:15 PM 33.8 °F - 26.6 °F 75% 30.42 in 10.0 mi Calm Calm - N/A   Clear
12:35 PM 35.6 °F - 26.6 °F 70% 30.41 in 10.0 mi Calm Calm - N/A   Clear
12:55 PM 35.6 °F - 26.6 °F 70% 30.40 in 10.0 mi Calm Calm - N/A   Clear
1:15 PM 37.4 °F - 28.4 °F 70% 30.39 in 10.0 mi Calm Calm - N/A   Clear
1:35 PM 37.4 °F - 28.4 °F 70% 30.38 in 10.0 mi Calm Calm - N/A   Clear
1:55 PM 39.2 °F - 28.4 °F 65% 30.37 in 10.0 mi Calm Calm - N/A   Clear
2:15 PM 39.2 °F - 26.6 °F 61% 30.37 in 10.0 mi Calm Calm - N/A   Clear
2:35 PM 41.0 °F - 28.4 °F 61% 30.36 in 10.0 mi Calm Calm - N/A   Clear
2:55 PM 41.0 °F - 26.6 °F 57% 30.35 in 10.0 mi Calm Calm - N/A   Clear
3:15 PM 42.8 °F - 23.0 °F 46% 30.35 in 10.0 mi Calm Calm - N/A   Clear
3:35 PM 42.8 °F - 23.0 °F 46% 30.35 in 10.0 mi Calm Calm - N/A   Clear
3:55 PM 42.8 °F - 23.0 °F 46% 30.35 in 10.0 mi Calm Calm - N/A   Clear
4:15 PM 41.0 °F - 24.8 °F 53% 30.34 in 10.0 mi Calm Calm - N/A   Clear
4:35 PM 41.0 °F - 24.8 °F 53% 30.33 in 10.0 mi Calm Calm - N/A   Clear
4:55 PM 39.2 °F - 26.6 °F 61% 30.33 in 10.0 mi Calm Calm - N/A   Clear
5:15 PM 39.2 °F - 28.4 °F 65% 30.31 in 10.0 mi Calm Calm - N/A   Clear
5:35 PM 39.2 °F - 26.6 °F 61% 30.31 in 10.0 mi Calm Calm - N/A   Clear
5:55 PM 37.4 °F - 26.6 °F 65% 30.30 in 10.0 mi Calm Calm - N/A   Clear
6:15 PM 35.6 °F - 28.4 °F 75% 30.31 in 10.0 mi Calm Calm - N/A   Clear
6:35 PM 35.6 °F - 30.2 °F 81% 30.31 in 10.0 mi Calm Calm - N/A   Clear
6:55 PM 35.6 °F - 30.2 °F 81% 30.31 in 10.0 mi Calm Calm - N/A   Clear
7:15 PM 35.6 °F - 30.2 °F 81% 30.31 in 10.0 mi Calm Calm - N/A   Clear
7:35 PM 35.6 °F - 30.2 °F 81% 30.31 in 10.0 mi Calm Calm - N/A   Clear
7:55 PM 35.6 °F - 30.2 °F 81% 30.29 in 10.0 mi Calm Calm - N/A   Clear
8:15 PM 35.6 °F - 30.2 °F 81% 30.30 in 10.0 mi Calm Calm - N/A   Clear
8:35 PM 35.6 °F - 30.2 °F 81% 30.29 in 10.0 mi Calm Calm - N/A   Clear
8:55 PM 35.6 °F - 30.2 °F 81% 30.29 in 10.0 mi Calm Calm - N/A   Scattered Clouds
9:15 PM 35.6 °F - 30.2 °F 81% 30.28 in 10.0 mi Calm Calm - N/A   Mostly Cloudy
9:35 PM 35.6 °F - 30.2 °F 81% 30.30 in 10.0 mi Calm Calm - N/A   Overcast
9:55 PM 35.6 °F - 30.2 °F 81% 30.29 in 10.0 mi Calm Calm - N/A   Light Drizzle
10:15 PM 37.4 °F - 30.2 °F 75% 30.29 in 10.0 mi Calm Calm - N/A   Drizzle
10:35 PM 41.0 °F - 28.4 °F 61% 30.30 in 10.0 mi Calm Calm - N/A   Light Drizzle
10:55 PM 41.0 °F - 26.6 °F 57% 30.27 in 10.0 mi Calm Calm - N/A Rain Light Rain
11:15 PM 41.0 °F - 26.6 °F 57% 30.27 in 10.0 mi Calm Calm - N/A   Light Drizzle